Date String (YYYY-MM-DD hh:mm:ss) UTC,Instrument flags,absolute air pressure of the measurement (hPa),sample flow rate (lpm),inlet stack bypass flow (lpm),air temperature of the measurement (°C),ambient temperature measured by the external sensor (°C),aerosol sample conditioner tube jacket temperature (°C),OPC LED temperature (°C),internal box temperature (°C),relative humidity of the measurement (%),span deviation,mass concentration of particles derived from Lorenz-Mie calculation of OPC scattering (μg/m³),mass concentration of particles derived from Lorenz-Mie calculation of OPC scattering (μg/m³),mass concentration of particles derived from Lorenz-Mie calculation of OPC scattering (μg/m³)
DateTimeUTC,F1_M11,P_M11,Q1_M11,Q2_M11,T1_M11,T2_M11,T3_M11,T4_M11,T5_M11,U1_M11,ZSPAN_M11,X0_M11,X2_M11,X1_M11
2024-03-19 03:00:00,SystemResetWarning,0831.5,5.00,000.00,022.6,021.7,000.0,031.3,024.4,14.1,0000.0,0005.67,0001.88,0001.27
2024-03-19 03:01:00,SystemResetWarning,0831.5,5.01,000.00,022.6,021.7,000.0,031.3,024.5,14.0,0000.0,0005.74,0001.92,0001.26
2024-03-19 03:02:00,SystemResetWarning,0831.5,5.00,000.00,022.6,021.6,000.0,031.3,024.4,14.0,0000.0,0005.76,0001.93,0001.28
2024-03-19 03:03:00,SystemResetWarning,0831.5,5.00,000.00,022.6,021.6,000.0,031.3,024.4,14.1,0000.0,0005.80,0001.93,0001.28
2024-03-19 03:04:00,SystemResetWarning,0831.5,5.00,000.00,022.6,021.6,000.0,031.3,024.4,14.1,0000.0,0005.85,0001.97,0001.29
2024-03-19 03:05:00,SystemResetWarning,0831.6,5.01,000.00,022.6,021.6,000.0,031.3,024.4,14.0,0000.0,0006.63,0002.02,0001.30
2024-03-19 03:06:00,SystemResetWarning,0831.5,5.00,000.00,022.6,021.6,000.0,031.2,024.4,14.0,0000.0,0007.19,0002.00,0001.29
2024-03-19 03:07:00,SystemResetWarning,0831.6,5.00,000.00,022.6,021.6,000.0,031.2,024.4,13.9,0000.0,0007.35,0002.01,0001.27
2024-03-19 03:08:00,SystemResetWarning,0831.6,5.00,000.00,022.5,021.6,000.0,031.2,024.4,14.0,0000.0,0007.95,0002.04,0001.27
2024-03-19 03:09:00,SystemResetWarning,0831.5,5.00,000.00,022.5,021.6,000.0,031.2,024.4,14.0,0000.0,0008.37,0002.08,0001.27
2024-03-19 03:10:00,SystemResetWarning,0831.6,4.99,000.00,022.5,021.6,000.0,031.2,024.4,14.1,0000.0,0008.39,0002.11,0001.28
2024-03-19 03:11:00,SystemResetWarning,0831.6,5.00,000.00,022.5,021.6,000.0,031.2,024.3,14.1,0000.0,0007.76,0002.05,0001.28
2024-03-19 03:12:00,SystemResetWarning,0831.5,5.01,000.00,022.5,021.6,000.0,031.2,024.3,14.2,0000.0,0007.75,0002.07,0001.29
2024-03-19 03:13:00,SystemResetWarning,0831.6,5.00,000.00,022.5,021.6,000.0,031.2,024.3,14.2,0000.0,0007.76,0002.06,0001.31
2024-03-19 03:14:00,SystemResetWarning,0831.5,5.01,000.00,022.5,021.6,000.0,031.2,024.3,14.2,0000.0,0007.80,0002.08,0001.31
2024-03-19 03:15:00,SystemResetWarning,0831.5,5.00,000.00,022.5,021.5,000.0,031.2,024.3,14.1,0000.0,0007.84,0002.12,0001.32
2024-03-19 03:16:00,SystemResetWarning,0831.5,4.99,000.00,022.5,021.5,000.0,031.1,024.3,14.2,0000.0,0007.55,0002.10,0001.32
2024-03-19 03:17:00,SystemResetWarning,0831.5,5.00,000.00,022.4,021.5,000.0,031.1,024.3,14.2,0000.0,0006.50,0002.10,0001.31
2024-03-19 03:18:00,SystemResetWarning,0831.5,4.99,000.00,022.4,021.5,000.0,031.1,024.3,14.1,0000.0,0006.35,0002.06,0001.31
2024-03-19 03:19:00,SystemResetWarning,0831.5,5.01,000.00,022.4,021.5,000.0,031.1,024.3,14.2,0000.0,0004.68,0002.01,0001.31
2024-03-19 03:20:00,SystemResetWarning,0831.5,5.01,000.00,022.4,021.4,000.0,031.1,024.2,14.2,0000.0,0003.53,0002.01,0001.30
2024-03-19 03:21:00,SystemResetWarning,0831.5,4.99,000.00,022.4,021.4,000.0,031.1,024.2,14.2,0000.0,0003.40,0001.96,0001.30
2024-03-19 03:22:00,SystemResetWarning,0831.5,4.99,000.00,022.4,021.4,000.0,031.1,024.2,14.2,0000.0,0003.47,0001.95,0001.30
2024-03-19 03:23:00,SystemResetWarning,0831.5,5.01,000.00,022.4,021.4,000.0,031.1,024.2,14.3,0000.0,0004.34,0001.93,0001.29
2024-03-19 03:24:00,SystemResetWarning,0831.5,5.01,000.00,022.3,021.4,000.0,031.1,024.2,14.3,0000.0,0004.55,0001.97,0001.29
2024-03-19 03:25:00,SystemResetWarning,0831.5,5.01,000.00,022.3,021.4,000.0,031.0,024.2,14.3,0000.0,0004.43,0001.93,0001.29
2024-03-19 03:26:00,SystemResetWarning,0831.5,5.00,000.00,022.3,021.4,000.0,031.0,024.2,14.3,0000.0,0004.43,0001.90,0001.29
2024-03-19 03:27:00,SystemResetWarning,0831.4,5.00,000.00,022.3,021.4,000.0,031.0,024.1,14.2,0000.0,0004.64,0001.93,0001.27
2024-03-19 03:28:00,SystemResetWarning,0831.5,5.00,000.00,022.3,021.4,000.0,031.0,024.1,14.2,0000.0,0004.76,0001.93,0001.27
2024-03-19 03:29:00,SystemResetWarning,0831.5,5.00,000.00,022.3,021.3,000.0,031.0,024.1,14.3,0000.0,0005.20,0002.00,0001.28
2024-03-19 03:30:00,SystemResetWarning,0831.4,5.00,000.00,022.3,021.3,000.0,031.0,024.1,14.4,0000.0,0005.42,0002.00,0001.27
2024-03-19 03:31:00,SystemResetWarning,0831.4,5.00,000.00,022.3,021.3,000.0,031.0,024.1,14.4,0000.0,0005.34,0001.99,0001.26
2024-03-19 03:32:00,SystemResetWarning,0831.4,5.00,000.00,022.3,021.3,000.0,031.0,024.1,14.4,0000.0,0005.42,0002.02,0001.26
2024-03-19 03:33:00,SystemResetWarning,0831.4,5.00,000.00,022.3,021.3,000.0,031.0,024.1,14.3,0000.0,0005.41,0002.02,0001.26
2024-03-19 03:34:00,SystemResetWarning,0831.4,4.99,000.00,022.2,021.3,000.0,030.9,024.1,14.3,0000.0,0004.36,0002.07,0001.26
2024-03-19 03:35:00,SystemResetWarning,0831.4,5.00,000.00,022.2,021.3,000.0,030.9,024.1,14.4,0000.0,0004.51,0002.06,0001.25
2024-03-19 03:36:00,SystemResetWarning,0831.5,5.01,000.00,022.2,021.3,000.0,030.9,024.1,14.5,0000.0,0004.60,0002.03,0001.23
2024-03-19 03:37:00,SystemResetWarning,0831.4,4.99,000.00,022.2,021.3,000.0,030.9,024.0,14.5,0000.0,0004.78,0002.06,0001.23
2024-03-19 03:38:00,SystemResetWarning,0831.4,5.01,000.00,022.2,021.3,000.0,030.9,024.0,14.5,0000.0,0004.70,0002.03,0001.22
2024-03-19 03:39:00,SystemResetWarning,0831.5,5.01,000.00,022.2,021.3,000.0,030.9,024.0,14.5,0000.0,0004.61,0002.01,0001.21
2024-03-19 03:40:00,SystemResetWarning,0831.4,5.00,000.00,022.2,021.3,000.0,030.9,024.0,14.5,0000.0,0004.42,0001.95,0001.19
2024-03-19 03:41:00,SystemResetWarning,0831.4,5.01,000.00,022.2,021.3,000.0,030.9,024.0,14.5,0000.0,0004.10,0001.95,0001.19
2024-03-19 03:42:00,SystemResetWarning,0831.4,5.00,000.00,022.2,021.3,000.0,030.9,024.0,14.5,0000.0,0004.11,0001.94,0001.20
2024-03-19 03:43:00,SystemResetWarning,0831.4,5.00,000.00,022.2,021.3,000.0,030.9,024.0,14.5,0000.0,0003.97,0001.89,0001.20
2024-03-19 03:44:00,SystemResetWarning,0831.4,5.00,000.00,022.2,021.3,000.0,030.9,024.0,14.5,0000.0,0004.93,0001.90,0001.20
2024-03-19 03:45:00,SystemResetWarning,0831.4,5.00,000.00,022.2,021.3,000.0,030.8,024.0,14.5,0000.0,0005.13,0001.85,0001.18
2024-03-19 03:46:00,SystemResetWarning,0831.5,5.00,000.00,022.1,021.3,000.0,030.8,024.0,14.5,0000.0,0005.07,0001.81,0001.17
2024-03-19 03:47:00,SystemResetWarning,0831.4,5.00,000.00,022.1,021.3,000.0,030.8,024.0,14.5,0000.0,0005.07,0001.76,0001.17
2024-03-19 03:48:00,SystemResetWarning,0831.5,4.99,000.00,022.1,021.3,000.0,030.8,024.0,14.5,0000.0,0004.96,0001.70,0001.16
2024-03-19 03:49:00,SystemResetWarning,0831.4,4.99,000.00,022.1,021.2,000.0,030.8,024.0,14.5,0000.0,0004.88,0001.67,0001.16
2024-03-19 03:50:00,SystemResetWarning,0831.4,5.01,000.00,022.1,021.2,000.0,030.8,024.0,14.5,0000.0,0004.85,0001.65,0001.17
2024-03-19 03:51:00,SystemResetWarning,0831.4,5.01,000.00,022.1,021.2,000.0,030.8,023.9,14.5,0000.0,0004.78,0001.66,0001.17
2024-03-19 03:52:00,SystemResetWarning,0831.4,5.01,000.00,022.1,021.2,000.0,030.8,023.9,14.6,0000.0,0004.71,0001.62,0001.17
2024-03-19 03:53:00,SystemResetWarning,0831.4,5.00,000.00,022.1,021.2,000.0,030.8,023.9,14.6,0000.0,0004.78,0001.66,0001.16
2024-03-19 03:54:00,SystemResetWarning,0831.5,5.00,000.00,022.1,021.2,000.0,030.8,023.9,14.6,0000.0,0004.93,0001.68,0001.13
2024-03-19 03:55:00,SystemResetWarning,0831.4,5.00,000.00,022.1,021.2,000.0,030.8,023.9,14.6,0000.0,0003.89,0001.64,0001.13
2024-03-19 03:56:00,SystemResetWarning,0831.5,5.00,000.00,022.0,021.2,000.0,030.7,023.9,14.7,0000.0,0003.60,0001.63,0001.13
2024-03-19 03:57:00,SystemResetWarning,0831.4,5.00,000.00,022.0,021.1,000.0,030.7,023.9,14.7,0000.0,0003.62,0001.64,0001.13
2024-03-19 03:58:00,SystemResetWarning,0831.4,5.00,000.00,022.0,021.1,000.0,030.7,023.9,14.6,0000.0,0003.37,0001.65,0001.13
2024-03-19 03:59:00,SystemResetWarning,0831.5,5.01,000.00,022.0,021.1,000.0,030.7,023.8,14.7,0000.0,0003.30,0001.69,0001.14
